Regional Weather Roundup
Issued by NWS Green Bay, WI

Home | Current Version | Previous Version | Graphics & Text | Print | Product List | Glossary On
Versions: 1 2 3 4 5 6 7 8 9 10 11 12 13 14 15 16 17 18 19 20 21 22 23 24 25 26 27 28 29 30 31 32 33 34 35 36 37 38 39 40 41 42 43 44 45 46 47 48 49 50
000
ASUS43 KGRB 242159
RWRGRB

NORTH-CENTRAL AND NORTHEAST WISCONSIN REGIONAL WEATHER ROUNDUP
NATIONAL WEATHER SERVICE GREEN BAY WI
400 PM CST MON NOV 24 2014

WIZ005-009-010>012-018-019-242300-
NORTH CENTRAL WISCONSIN

CITY           SKY/WX    TMP DP  RH WIND       PRES   REMARKS
IRONWOOD       CLOUDY    23  21  93 NW15G22   29.39R VSB 3/4
MANITOWISH WTR NOT AVBL
ARBOR VITAE    NOT AVBL
EAGLE RIVER    NOT AVBL
LAND O LAKES   NOT AVBL
RHINELANDER    SNOW      25  23  92 VRB7      29.30R VSB 1/4
PHILLIPS       NOT AVBL
ANTIGO         NOT AVBL
TOMAHAWK       NOT AVBL
MERRILL        NOT AVBL
$$

WIZ013-073-242300-
NORTHEAST WISCONSIN

CITY           SKY/WX    TMP DP  RH WIND       PRES   REMARKS
IRON MOUNTAIN  LGT SNOW  28  22  78 NW21G29   29.24R
MARINETTE      CLOUDY    34  27  75 N12G20    29.23R
$$

WIZ017-030-035>037-045-242300-
CENTRAL WISCONSIN

CITY           SKY/WX    TMP DP  RH WIND       PRES   REMARKS
MEDFORD        NOT AVBL
WAUSAU         SNOW      29  27  92 NW17G25   29.31R VSB 1/2
MOSINEE        SNOW      30  30 100 NW15      29.32R VSB 1/2
MARSHFIELD     SNOW      28  25  88 W21G28    29.36R VSB 1/2
WISC RAPIDS    SNOW      28  25  88 W20G28    29.38R VSB 1/4
STEVENS POINT  NOT AVBL
WAUPACA        NOT AVBL
SHAWANO        NOT AVBL
CLINTONVILLE   NOT AVBL
$$

WIZ038-039-048-051-242300-
FOX VALLEY

CITY           SKY/WX    TMP DP  RH WIND       PRES   REMARKS
NWS GREEN BAY  SNOW      33  32  96 W12       29.26R VSB 1/2
APPLETON       SNOW      32  32 100 W13       29.27R VSB 1/2
OSHKOSH        SNOW      32  29  88 W12G24    29.30R VSB 1/4
FOND DU LAC    SNOW      31  28  89 W14G30    29.33R VSB 1/2
$$

WIZ022-050-052-242300-
EAST CENTRAL WISCONSIN

CITY           SKY/WX    TMP DP  RH WIND       PRES   REMARKS
STURGEON BAY   CLOUDY    34  30  86 NW9       29.24R
MANITOWOC      LGT SNOW  34  34 100 W13G18    29.25R FOG
SHEBOYGAN      SNOW      33  30  88 W20G31    29.29R VSB 1/2
$$

LMZ563-521-522-541>543-242300-
LAKESHORE

STATION/POSITION TIME  TEMP    WIND        PRES    VSBY  WAVE
                       AIR SEA DIR/SP/G                  HT/PER
                 (UTC) (F)     (DEG/KT/KT) (MB)    (MI)  (FT/S)
SHEBOYGAN LKSHOR 2100   34 38  250/ 17/ 22  990.3R
KEWAUNEE LKSHORE 2100   38     320/  5/ 10  988.4R
NORTHPORT PIER   2100   36     340/ 21/ 26  988.8R
N MID LAKE BUOY  2100   37 42  330/ 23/ 27  986.2R         4/ 5
CHAMBERS ISLAND  2100   36     320/ 19/ 21  989.2R
MENOMINEE LKSHOR 2100   35     290/  9/ 13  990.1R
$$



USA.gov is the U.S. government's official web portal to all federal, state and local government web resources and services.